Location: Limerick
(52.6650°N, 8.6230°W)
Time: 19:45:40
(UTC+01:00)

ISS - Pass Details

Date: 25 July 2017
Orbit: 400 x 408 km, 51.6° (Epoch: 21 July)

Event Time Altitude Azimuth Distance (km) Brightness Sun altitude
Rises 03:51:49 0° 280° (W) 2,316 -0.2 -12.3°
Reaches altitude 10° 03:54:09 10° 266° (W) 1,455 -1.4 -12.2°
Maximum altitude 03:56:48 23° 211° (SSW) 909 -2.7 -11.9°
Drops below altitude 10° 03:59:26 10° 157° (SSE) 1,452 -1.3 -11.7°
Sets 04:01:46 0° 142° (SE) 2,309 -0.2 -11.5°
